Content
SEND FEEDBACK

Daily
Averages
Monthly
Summary
United States of America

BOSTON, MASSACHUSETTS


Home > North America > United States > Massachusetts
Elevation: 4 feet     Latitude: 42 22N     Longitude: 071 02W

WEATHER
 
SELECT A DAY
Number of Records: 206,173;   Date Range: 1/1/95 - 11/21/14
 
SHARE

PRINT THIS DATA

[ ← Previous Day ]
WEATHER ALMANAC - APRIL 21, 2013
[ Next Day → ]
[ °C ]   °F
Weather ElementAverageHighLow
Temperature42.9 °F50 °F (1:54 pm)37 °F (4:54 am)
Dewpoint22.4 °F30 °F (8:54 pm)17.1 °F (2:54 am)
Humidity45.3 %62 % (8:54 pm)28 % (1:54 pm)
Barometer30.52 in30.69 in (11:54 pm)30.28 in (1:54 am)
Wind Speed11.1 mph15 mph (1:54 am)
Wind Gust28.8 mph (2:54 am)
Weather ElementAverage
Visibility10 mi
Wind DirectionSW (226.5 °)

Weather ElementTotal
Precipitation---
Heating Degree Days21.5 (Base 65)
Averaged from 23 records on April 21, 2013
WEATHER CONDITIONS BREAKOUT
WIND DIRECTION BREAKOUT
WEATHER BY HOUR - APRIL 21, 2013
[ °C ]   °F
Local TimeTemperatureDewpointHumidityBarometerVisibilityWind DirectionWind SpeedGust SpeedPrecipitationEventsConditions
1:54 AM41.0 °F19.9 °F43 %30.28 in10.0 miNW (320°)15.0 mph27.6 mphPartly Cloudy
2:54 AM39.0 °F17.1 °F41 %30.32 in10.0 miNW (310°)13.8 mph28.8 mphPartly Cloudy
3:54 AM37.9 °F18.0 °F45 %30.34 in10.0 miWNW (300°)10.4 mph20.7 mphClear
4:54 AM37.0 °F17.1 °F44 %30.36 in10.0 miWNW (300°)11.5 mphPartly Cloudy
5:54 AM37.0 °F17.1 °F44 %30.40 in10.0 miWNW (290°)13.8 mphPartly Cloudy
6:54 AM37.9 °F19.0 °F47 %30.45 in10.0 miWNW (300°)10.4 mphClear
7:54 AM39.9 °F19.0 °F43 %30.48 in10.0 miNNW (330°)13.8 mphClear
8:54 AM41.0 °F18.0 °F40 %30.51 in10.0 miNorth (350°)13.8 mph24.2 mphClear
9:54 AM43.0 °F19.0 °F38 %30.52 in10.0 miNW (320°)12.7 mphClear
10:54 AM45.0 °F19.0 °F36 %30.53 in10.0 miNNW (340°)4.6 mphClear
11:54 AM48.0 °F19.9 °F33 %30.54 in10.0 miWNW (300°)9.2 mph19.6 mphClear
12:54 PM48.9 °F18.0 °F29 %30.55 in10.0 miNNW (330°)13.8 mph19.6 mphClear
1:54 PM50.0 °F18.0 °F28 %30.54 in10.0 miNNE (30°)8.1 mphPartly Cloudy
2:54 PM46.9 °F26.1 °F44 %30.55 in10.0 miSE (130°)12.7 mphPartly Cloudy
3:54 PM48.0 °F28.0 °F46 %30.56 in10.0 miESE (110°)12.7 mphScattered Clouds
4:54 PM46.0 °F27.0 °F47 %30.56 in10.0 miEast (100°)15.0 mphPartly Cloudy
5:54 PM46.0 °F28.0 °F50 %30.58 in10.0 miESE (110°)13.8 mphPartly Cloudy
6:54 PM44.1 °F27.0 °F51 %30.60 in10.0 miESE (110°)11.5 mphPartly Cloudy
7:54 PM43.0 °F28.9 °F58 %30.63 in10.0 miESE (110°)10.4 mphPartly Cloudy
8:54 PM42.1 °F30.0 °F62 %30.66 in10.0 miESE (120°)8.1 mphPartly Cloudy
9:54 PM41.0 °F28.0 °F60 %30.68 in10.0 miSouth (170°)10.4 mphScattered Clouds
10:54 PM41.0 °F28.0 °F60 %30.68 in10.0 miSW (220°)5.8 mphPartly Cloudy
11:54 PM42.1 °F26.1 °F53 %30.69 in10.0 miSSW (210°)3.5 mphPartly Cloudy
Hourly data recorded from KBOS, located miles away from Boston, Massachusetts







STORIES FROM OUR PARTNERS